Location: Buena Vista Beach
(41.8098°N, 81.1279°W)
Time: 18:33:44
(UTC+00:00)

Cosmos 1892 - Pass Details

Date: 29 October 2020
Orbit: 504 x 523 km, 82.5° (Epoch: 24 November)

Event Time Altitude Azimuth Distance (km) Brightness Sun altitude
Rises 23:15:22 0° 358° (N) 2,664 6.2 -10.5°
Reaches altitude 10° 23:17:35 10° 4° (N) 1,771 5.3 -10.9°
Maximum altitude 23:21:20 45° 79° (E) 719 3.0 -11.6°
Drops below altitude 10° 23:25:03 10° 153° (SSE) 1,757 5.2 -12.3°
Sets 23:27:14 0° 160° (SSE) 2,639 6.2 -12.7°
